Licenciado Manuel Crescencio Rejon Int Airport
MMMD : rendu visible

Aérodrome :











RETROUVEZ-NOUS SUR...

 
LOGIN :

S'inscrire | Disclaimer

   EN    FR    IT 

 









Légende :    VFR   VFR Marginal   IFR   IFR Intensif   IFR Très Intensif
Visi : 
Plafond : 
>= 8 km
>= 3000ft
5 à 8 km
1000 à 3000 ft
1500m à 5 km
500 à 1000 ft
800 à 1500m
200 à 500 ft
< 800m
< 200 ft
Symboles :   Orages  Brouillard  Fortes neiges  Fortes précipitations  Vent > 20 kt






- Altitude de l'aérodrome : 38 ft
- Code IATA : MID


MMMD - Licenciado Manuel Crescencio Rejon Int

DERNIER METAR :
  • 180644Z 10007KT 7SM SKC 23/20 A2997

METARs EXPIRÉS :
  • 180544Z 11007KT 7SM SKC 24/19 A2997 RMK SLP150 52014 961
  • 180445Z 11010KT 7SM SKC 25/19 A2997 RMK SC

TAF TAF MMMD
Valide du 18 à 06h jusqu'au 19 à 12h UTC


180440Z 1806/1912 11007KT P6SM SCT020 TX34/1820Z TN20/1812Z
FM181800 12012KT P6SM BKN025
BECMG 1905/1907 13005KT SCT025



MET'MAP, la Météo Aéronautique d'un coup d'oeil ! - Copyright ORBIFLY Décembre 2007 - Disclaimer

ORBIFLY MET'MAP TEAM :

Programmation & Développement : Alexandra Zaïnal
Sur une idée originale de : Baudouin d'Aumeries
Assistance à la programmation : Marc-Olivier Méhu
Soutien technique & logistique : Manuel Goepfert

Contact : metmap@orbifly.com




SOURCES & CREDITS :

   NOAA       Earth
Advisory